Location: Caltech
(34.1382°N, 118.1253°W)
Time: 17:16:34
(UTC-07:00)

CZ-4B DEB - Visible Passes

Search period start: 23 June 2017 00:00
Search period end: 03 July 2017 00:00
Orbit: 840 x 863 km, 99.0° (Epoch: 22 June)

Date Brightness Start Highest point End Pass type
(mag) Time Alt. Az. Time Alt. Az. Time Alt. Az.
23 Jun 6.1 03:59:21 10° NE 04:03:55 26° E 04:08:29 10° SSE visible
24 Jun 6.4 03:48:21 10° NE 03:52:22 20° E 03:56:21 10° SE visible
25 Jun 6.7 03:37:34 10° ENE 03:40:47 16° E 03:43:59 10° SE visible
26 Jun 6.8 03:27:22 10° ENE 03:29:11 12° E 03:31:00 10° ESE visible
26 Jun 4.3 05:04:48 10° N 05:10:19 73° WNW 05:15:50 10° SSW visible
27 Jun 4.3 04:53:18 10° NNE 04:58:51 88° ESE 05:04:24 10° SSW visible
28 Jun 4.6 04:41:52 10° NNE 04:47:23 69° ESE 04:52:53 10° S visible
29 Jun 5.0 04:30:29 10° NNE 04:35:53 53° E 04:41:17 10° S visible
30 Jun 5.4 04:19:11 10° NNE 04:24:23 41° E 04:29:34 10° SSE visible
01 Jul 5.8 04:07:57 10° NE 04:12:51 32° E 04:17:44 10° SSE visible
02 Jul 6.2 03:56:50 10° NE 04:01:18 25° E 04:05:45 10° SSE visible
